カタログに戻る

STARLINK-34640

運用中通信VLEO
NORAD 65092·PAYLOAD·🇺🇸 United States

打ち上げ Aug 4, 2025 から Cape Canaveral Space Force Station

Loading…

次のパス (今後24時間)

TLE

最新Source: CelesTrak SupGP

元期: Sep 15, 2026, 02:31 UTC

1 65092C 25167Q   26258.10534722 -.00047003  00000+0 -15113-2 0  2586
2 65092  53.1585 226.7807 0001285  90.3841 177.4146 15.31728840    14

AllMySatでSTARLINK-34640をリアルタイム追跡

Download on the App Store